Weather in Wilmington

United States     39°44′45″N   75°32′50″W
temp.,
°C
wind,
m/s
gust,
m/s
humid.,
%
clouds,
%
prec.,
mm/h
press.,
hPa
HPBL,
m
18 september, sat
sat1823:00+21nne26937 0.0 1020270
02:00+20n24957 0.0 1019158
05:00+19nnw24927 0.0 1018120
08:00+21nnw13830 0.0 1019109
11:00+26nw34630 0.0 1019940
14:00+29nnw34520 0.0 10161530
17:00+29nw45510 0.0 10151738
20:00+24wnw38685 0.0 1016212
19 september, sun
sun1923:00+23n39720 0.0 1018280
02:00+21nnw39800 0.0 1018311
05:00+19nnw49791 0.0 1019366
08:00+18n410715 0.0 1021363
11:00+23n46385 0.0 1022862
14:00+26n44315 0.0 10211290
17:00+25nnw343713 0.0 10201025
20:00+20n245399 0.0 102182
20 september, mon
mon2023:00+17ese236974 0.0 102368
02:00+16e11790 0.0 102517
05:00+16ene12880 0.0 102539
08:00+17ene12850 0.0 1026114
11:00+23ese45585 0.0 10271161
14:00+26se45441 0.0 10261722
17:00+24se554996 0.0 10261507
20:00+19ese49674 0.0 1027469
21 september, tue
tue2123:00+17e2876100 0.0 1028255
02:00+16e278075 0.0 1027209
05:00+16ene268493 0.0 1027179
08:00+17ene2782100 0.0 1027229
11:00+23se4563100 0.0 10271156
14:00+26sse3451100 0.0 10251776
17:00+24ese4663100 0.1 10241020
20:00+21ese4979100 0.1 1024571
22 september, wed
wed2223:00+21ese41184100 0.0 1022552
02:00+21se41085100 0.1 1020723
05:00+21se41088100 0.1 1018626
08:00+21se41091100 0.5 1017530
11:00+24sse5984100 2.8 1015825
14:00+22ssw4989100 7.6 1013692
17:00+19s41391100 9.3 1012722
20:00+19wnw3798100 21.8 1012483